Total_Precipitation_Accumulation
0.32 0.64 1.10 1.62 1.95 2.06 1.98 1.96 1.84 1.67 1.53 1.48 1.48 1.61 1.75 1.77 1.71 1.68 1.61 1.62 1.68 1.75 1.84 1.80 1.71 1.58 1.54 1.48 1.34 1.14 0.95 0.79 0.70 0.65 0.58 0.47 0.37 0.34 0.33 0.34 0.36 0.35 0.34
0.39 0.70 1.04 1.39 1.68 1.91 2.01 1.99 1.87 1.92 2.03 2.22 2.44 2.60 2.74 2.70 2.60 2.53 2.47 2.43 2.36 2.25 2.17 2.07 1.91 1.75 1.63 1.46 1.32 1.19 1.08 0.97 0.85 0.74 0.69 0.56 0.42 0.30 0.23 0.23 0.22 0.22 0.20
0.43 0.67 0.82 1.01 1.31 1.64 1.87 1.96 2.11 2.46 2.78 3.14 3.61 3.87 3.67 3.45 3.37 3.17 3.09 2.91 2.66 2.47 2.33 2.10 1.94 1.77 1.58 1.44 1.32 1.20 1.13 1.02 0.87 0.76 0.70 0.59 0.48 0.35 0.23 0.18 0.16 0.15 0.15
0.35 0.54 0.73 0.90 1.14 1.50 1.84 2.09 2.40 2.84 3.34 3.74 4.08 4.30 4.23 4.01 3.83 3.45 3.14 2.78 2.46 2.27 2.08 1.91 1.76 1.63 1.48 1.32 1.18 1.11 1.02 0.91 0.78 0.66 0.57 0.50 0.43 0.39 0.30 0.19 0.14 0.13 0.14
0.29 0.39 0.54 0.72 0.99 1.34 1.72 2.04 2.37 2.89 3.38 3.80 4.11 4.33 4.40 4.22 3.83 3.22 2.67 2.33 2.09 1.91 1.70 1.49 1.36 1.27 1.16 1.02 0.87 0.77 0.67 0.60 0.52 0.47 0.43 0.41 0.36 0.33 0.34 0.28 0.19 0.15 0.13
0.27 0.36 0.49 0.64 0.87 1.13 1.44 1.71 2.02 2.65 3.25 3.69 4.02 4.31 4.29 3.94 3.38 2.77 2.25 1.94 1.75 1.60 1.43 1.26 1.08 0.94 0.79 0.64 0.52 0.45 0.40 0.37 0.34 0.31 0.28 0.25 0.25 0.25 0.27 0.27 0.21 0.16 0.12
0.25 0.32 0.45 0.58 0.83 1.06 1.33 1.62 1.92 2.30 2.74 3.07 3.22 3.35 3.35 3.13 2.87 2.52 2.13 1.77 1.53 1.32 1.11 0.86 0.67 0.54 0.44 0.36 0.29 0.26 0.23 0.21 0.20 0.17 0.16 0.16 0.15 0.15 0.18 0.22 0.19 0.16 0.11
0.26 0.33 0.46 0.58 0.71 0.89 1.14 1.47 1.72 1.94 2.14 2.28 2.40 2.32 2.24 2.13 2.00 1.76 1.49 1.24 1.00 0.82 0.65 0.48 0.37 0.30 0.23 0.19 0.18 0.16 0.14 0.14 0.15 0.15 0.17 0.18 0.16 0.17 0.19 0.23 0.26 0.24 0.16
0.31 0.40 0.50 0.58 0.67 0.78 0.94 1.11 1.24 1.38 1.44 1.38 1.35 1.35 1.31 1.23 1.09 0.93 0.75 0.61 0.50 0.41 0.34 0.26 0.20 0.16 0.15 0.15 0.15 0.15 0.15 0.16 0.17 0.17 0.17 0.17 0.15 0.15 0.15 0.17 0.22 0.30 0.26
0.38 0.45 0.52 0.57 0.61 0.66 0.79 0.84 0.84 0.84 0.87 0.90 0.86 0.82 0.79 0.75 0.69 0.62 0.56 0.50 0.41 0.33 0.26 0.22 0.20 0.17 0.15 0.14 0.16 0.16 0.16 0.18 0.17 0.16 0.15 0.15 0.14 0.15 0.16 0.17 0.20 0.27 0.34
0.48 0.55 0.55 0.53 0.52 0.53 0.57 0.59 0.61 0.60 0.58 0.60 0.62 0.60 0.54 0.49 0.46 0.44 0.42 0.37 0.31 0.26 0.22 0.19 0.16 0.15 0.14 0.14 0.15 0.15 0.14 0.14 0.13 0.12 0.12 0.13 0.13 0.15 0.14 0.17 0.22 0.26 0.34
0.55 0.56 0.53 0.47 0.45 0.47 0.50 0.51 0.53 0.52 0.51 0.48 0.46 0.43 0.39 0.35 0.33 0.32 0.30 0.26 0.23 0.21 0.20 0.19 0.19 0.17 0.15 0.14 0.14 0.14 0.12 0.12 0.12 0.11 0.12 0.11 0.11 0.13 0.14 0.18 0.21 0.24 0.30
0.75 0.67 0.60 0.50 0.43 0.42 0.42 0.42 0.43 0.40 0.34 0.29 0.28 0.27 0.27 0.26 0.26 0.26 0.24 0.22 0.20 0.19 0.18 0.17 0.16 0.14 0.13 0.13 0.14 0.12 0.11 0.10 0.10 0.11 0.12 0.12 0.13 0.15 0.18 0.23 0.25 0.27 0.30
0.82 0.68 0.59 0.50 0.44 0.40 0.38 0.35 0.34 0.30 0.25 0.21 0.18 0.19 0.20 0.20 0.21 0.20 0.19 0.18 0.17 0.16 0.15 0.13 0.12 0.12 0.12 0.10 0.08 0.07 0.07 0.07 0.08 0.09 0.12 0.14 0.17 0.21 0.24 0.25 0.29 0.35 0.41
0.86 0.77 0.65 0.57 0.47 0.41 0.35 0.32 0.30 0.25 0.20 0.18 0.18 0.18 0.18 0.18 0.18 0.18 0.18 0.17 0.15 0.12 0.10 0.09 0.09 0.10 0.08 0.05 0.03 0.03 0.03 0.06 0.08 0.09 0.12 0.13 0.16 0.22 0.25 0.28 0.35 0.46 0.53
0.89 0.83 0.72 0.62 0.54 0.49 0.46 0.40 0.36 0.30 0.26 0.25 0.24 0.22 0.19 0.17 0.17 0.17 0.16 0.15 0.14 0.11 0.09 0.07 0.06 0.06 0.04 0.02 0.02 0.01 0.02 0.06 0.11 0.15 0.14 0.10 0.10 0.13 0.18 0.25 0.33 0.43 0.52
1.01 0.94 0.82 0.72 0.66 0.60 0.54 0.48 0.42 0.37 0.34 0.30 0.26 0.21 0.17 0.17 0.15 0.13 0.13 0.12 0.10 0.08 0.07 0.06 0.05 0.06 0.04 0.00 0.00 0.00 0.02 0.07 0.14 0.17 0.15 0.10 0.09 0.14 0.19 0.22 0.24 0.32 0.44
1.11 0.99 0.88 0.82 0.78 0.71 0.63 0.53 0.43 0.35 0.29 0.25 0.21 0.18 0.15 0.14 0.12 0.11 0.09 0.08 0.07 0.07 0.06 0.06 0.06 0.07 0.04 0.00 0.00 0.00 0.03 0.09 0.12 0.13 0.13 0.15 0.18 0.18 0.16 0.18 0.26 0.41 0.54
1.06 0.96 0.85 0.80 0.76 0.68 0.57 0.44 0.34 0.26 0.22 0.18 0.15 0.13 0.11 0.08 0.06 0.06 0.06 0.06 0.07 0.07 0.05 0.04 0.05 0.08 0.06 0.01 0.00 0.00 0.03 0.06 0.08 0.09 0.11 0.14 0.19 0.17 0.21 0.29 0.44 0.63 0.82
0.91 0.87 0.83 0.76 0.66 0.53 0.39 0.30 0.24 0.19 0.17 0.14 0.11 0.08 0.06 0.05 0.05 0.06 0.07 0.07 0.07 0.06 0.05 0.04 0.06 0.08 0.09 0.02 0.00 0.00 0.03 0.05 0.06 0.10 0.14 0.17 0.20 0.20 0.32 0.41 0.60 0.83 0.96
0.80 0.76 0.69 0.63 0.51 0.37 0.27 0.22 0.19 0.15 0.11 0.07 0.05 0.05 0.04 0.03 0.03 0.05 0.07 0.07 0.07 0.08 0.07 0.07 0.08 0.09 0.06 0.03 0.00 0.01 0.03 0.04 0.08 0.15 0.23 0.28 0.28 0.27 0.39 0.56 0.72 0.97 1.01
0.73 0.67 0.59 0.48 0.35 0.24 0.20 0.18 0.14 0.08 0.04 0.03 0.04 0.04 0.03 0.02 0.02 0.05 0.08 0.08 0.09 0.09 0.08 0.09 0.09 0.09 0.08 0.05 0.01 0.00 0.01 0.03 0.11 0.25 0.33 0.34 0.33 0.35 0.53 0.67 0.87 1.11 1.20
0.57 0.46 0.37 0.30 0.23 0.18 0.15 0.14 0.09 0.04 0.03 0.04 0.04 0.04 0.04 0.03 0.03 0.04 0.07 0.07 0.08 0.08 0.08 0.08 0.08 0.08 0.10 0.08 0.01 0.01 0.02 0.04 0.11 0.27 0.40 0.41 0.38 0.55 0.83 0.99 1.11 1.27 1.29
0.38 0.28 0.22 0.20 0.17 0.12 0.10 0.08 0.05 0.03 0.04 0.06 0.05 0.06 0.07 0.07 0.06 0.06 0.04 0.04 0.06 0.06 0.07 0.08 0.09 0.11 0.12 0.08 0.04 0.04 0.07 0.09 0.13 0.23 0.39 0.52 0.58 0.75 1.02 1.22 1.32 1.36 1.26
0.20 0.16 0.15 0.14 0.11 0.09 0.08 0.05 0.04 0.03 0.06 0.06 0.06 0.07 0.06 0.06 0.08 0.07 0.03 0.02 0.03 0.02 0.03 0.06 0.08 0.10 0.10 0.06 0.06 0.08 0.10 0.13 0.17 0.22 0.36 0.53 0.64 0.83 1.04 1.17 1.20 1.16 1.08
0.10 0.09 0.08 0.07 0.06 0.06 0.05 0.04 0.03 0.02 0.05 0.06 0.06 0.05 0.04 0.04 0.04 0.07 0.07 0.02 0.01 0.01 0.01 0.03 0.05 0.06 0.06 0.05 0.05 0.07 0.12 0.16 0.22 0.29 0.44 0.59 0.70 0.85 0.98 1.05 1.04 0.97 0.89